This is the latest recevied weather packets stored in our database for station/object W9WRP. If no packets are shown the sender has not sent any weather packets the latest 1 day(s).
| Time | Temp. | Humidity | Pressure | Rain* | Wind** | Luminosity | Snow |
|---|---|---|---|---|---|---|---|
| 1778087311 | 23.89° C | 25% | 1018.3 hPa | 0 mm | - | 644 W/m² | - |
| 1778086398 | 23.89° C | 26% | 1018.3 hPa | 0 mm | - | 602 W/m² | - |
| 1778086094 | 23.33° C | 26% | 1018.5 hPa | 0 mm | - | 439 W/m² | - |
| 1778084582 | 22.22° C | 28% | 1018.3 hPa | 0 mm | - | 173 W/m² | - |
| 1778084279 | 21.67° C | 29% | 1018.5 hPa | 0 mm | - | 225 W/m² | - |
| 1778081330 | 20° C | 31% | 1018.3 hPa | 0 mm | - | 53 W/m² | - |
| 1778081027 | 19.44° C | 31% | 1018.3 hPa | 0 mm | - | 57 W/m² | - |
| 1778080726 | 19.44° C | 31% | 1018.6 hPa | 0 mm | - | 42 W/m² | - |
| 1778079816 | 18.89° C | 33% | 1018.3 hPa | 0 mm | - | 52 W/m² | - |
| 1778079210 | 18.33° C | 34% | 1018.4 hPa | 0 mm | - | 40 W/m² | - |
| 1778078907 | 18.33° C | 34% | 1018.2 hPa | 0 mm | - | 36 W/m² | - |
| 1778078603 | 17.78° C | 35% | 1018.4 hPa | 0 mm | - | 42 W/m² | - |
| 1778078302 | 17.78° C | 35% | 1018.5 hPa | 0 mm | - | 34 W/m² | - |
| 1778077394 | 16.67° C | 36% | 1018.2 hPa | 0 mm | - | 36 W/m² | - |
| 1778076790 | 16.11° C | 37% | 1018.3 hPa | 0 mm | - | 34 W/m² | - |
| 1778076488 | 16.11° C | 37% | 1018.2 hPa | 0 mm | - | 47 W/m² | - |
| 1778075577 | 15° C | 39% | 1018.1 hPa | 0 mm | - | 28 W/m² | - |
| 1778074668 | 13.89° C | 41% | 1017.7 hPa | 0 mm | - | 23 W/m² | - |
| 1778074061 | 13.33° C | 42% | 1017.6 hPa | 0 mm | - | 24 W/m² | - |
| 1778071942 | 12.22° C | 44% | 1016.9 hPa | 0 mm | - | 8 W/m² | - |
| 1778071640 | 12.22° C | 44% | 1016.8 hPa | 0 mm | - | 6 W/m² | - |
| 1778070430 | 12.22° C | 44% | 1016.7 hPa | 0 mm | - | 1 W/m² | - |
| 1778069825 | 12.78° C | 43% | 1016.5 hPa | 0 mm | - | 0 W/m² | - |
| 1778069219 | 12.78° C | 43% | 1016.5 hPa | 0 mm | - | 0 W/m² | - |
| 1778068009 | 13.89° C | 41% | 1016.5 hPa | 0 mm | - | 0 W/m² | - |
* Rain latest hour (hover to see other rain measurements)
** Current wind speed in m/s (hover to see current wind gust speed)